TimeEDT,TemperatureF,Dew PointF,Humidity,Sea Level PressureIn,VisibilityMPH,Wind Direction,Wind SpeedMPH,Gust SpeedMPH,PrecipitationIn,Events,Conditions,WindDirDegrees,DateUTC
12:15 AM,64.4,62.6,94,29.99,10.0,ENE,4.6,-,N/A,,Scattered Clouds,60,2012-10-27 04:15:00
12:35 AM,62.6,60.8,94,29.98,10.0,NE,3.5,-,N/A,,Mostly Cloudy,50,2012-10-27 04:35:00
12:55 AM,62.6,60.8,94,29.98,10.0,ENE,3.5,-,N/A,,Mostly Cloudy,60,2012-10-27 04:55:00
1:15 AM,62.6,60.8,94,29.97,10.0,ENE,3.5,-,N/A,,Scattered Clouds,70,2012-10-27 05:15:00
1:35 AM,62.6,60.8,94,29.96,10.0,ENE,4.6,-,N/A,,Clear,70,2012-10-27 05:35:00
1:55 AM,62.6,60.8,94,29.96,10.0,Calm,Calm,-,N/A,,Clear,0,2012-10-27 05:55:00
2:15 AM,62.6,60.8,94,29.95,10.0,ENE,4.6,-,N/A,,Clear,60,2012-10-27 06:15:00
2:35 AM,62.6,60.8,94,29.94,10.0,ENE,3.5,-,N/A,,Clear,70,2012-10-27 06:35:00
2:55 AM,62.6,60.8,94,29.93,10.0,ENE,3.5,-,N/A,,Clear,70,2012-10-27 06:55:00
3:15 AM,62.6,60.8,94,29.93,10.0,ENE,3.5,-,N/A,,Clear,70,2012-10-27 07:15:00
3:35 AM,62.6,60.8,94,29.91,10.0,Calm,Calm,-,N/A,,Clear,0,2012-10-27 07:35:00
3:55 AM,62.6,60.8,94,29.91,10.0,ENE,3.5,-,N/A,,Clear,60,2012-10-27 07:55:00
4:15 AM,62.6,60.8,94,29.91,10.0,Calm,Calm,-,N/A,,Clear,0,2012-10-27 08:15:00
4:35 AM,62.6,60.8,94,29.90,10.0,East,4.6,-,N/A,,Clear,80,2012-10-27 08:35:00
4:55 AM,62.6,60.8,94,29.90,10.0,Calm,Calm,-,N/A,,Clear,0,2012-10-27 08:55:00
5:15 AM,62.6,60.8,94,29.89,10.0,ENE,4.6,-,N/A,,Clear,70,2012-10-27 09:15:00
5:35 AM,62.6,60.8,94,29.90,10.0,NE,3.5,-,N/A,,Clear,50,2012-10-27 09:35:00
5:55 AM,62.6,60.8,94,29.89,10.0,East,4.6,-,N/A,,Clear,90,2012-10-27 09:55:00
6:15 AM,64.4,60.8,88,29.89,10.0,Calm,Calm,-,N/A,,Clear,0,2012-10-27 10:15:00
6:35 AM,62.6,60.8,94,29.89,10.0,East,3.5,-,N/A,,Clear,80,2012-10-27 10:35:00
6:55 AM,62.6,60.8,94,29.88,10.0,ENE,4.6,-,N/A,,Clear,60,2012-10-27 10:55:00
7:15 AM,62.6,60.8,94,29.87,10.0,NE,8.1,-,N/A,,Clear,40,2012-10-27 11:15:00
7:55 AM,62.6,60.8,94,29.89,10.0,Calm,Calm,-,N/A,,Clear,0,2012-10-27 11:55:00
8:15 AM,62.6,60.8,94,29.90,10.0,North,3.5,-,N/A,,Scattered Clouds,350,2012-10-27 12:15:00
8:35 AM,64.4,60.8,88,29.89,10.0,NE,6.9,-,N/A,,Scattered Clouds,50,2012-10-27 12:35:00
8:55 AM,64.4,60.8,88,29.89,10.0,NE,5.8,-,N/A,,Scattered Clouds,40,2012-10-27 12:55:00
9:15 AM,66.2,60.8,83,29.89,10.0,ENE,5.8,-,N/A,,Scattered Clouds,70,2012-10-27 13:15:00
9:35 AM,66.2,60.8,83,29.89,10.0,ENE,5.8,-,N/A,,Mostly Cloudy,60,2012-10-27 13:35:00
10:15 AM,68.0,62.6,83,29.88,10.0,ENE,6.9,-,N/A,,Scattered Clouds,70,2012-10-27 14:15:00
10:35 AM,68.0,60.8,78,29.88,10.0,ENE,6.9,-,N/A,,Scattered Clouds,60,2012-10-27 14:35:00
10:55 AM,68.0,60.8,78,29.87,10.0,NE,3.5,-,N/A,,Scattered Clouds,40,2012-10-27 14:55:00
11:35 AM,69.8,60.8,73,29.88,10.0,NE,3.5,-,N/A,,Scattered Clouds,50,2012-10-27 15:35:00
11:55 AM,69.8,60.8,73,29.87,10.0,ENE,6.9,-,N/A,,Mostly Cloudy,60,2012-10-27 15:55:00
12:15 PM,69.8,60.8,73,29.87,10.0,NE,6.9,-,N/A,,Overcast,50,2012-10-27 16:15:00
12:35 PM,69.8,60.8,73,29.86,10.0,East,3.5,-,N/A,,Scattered Clouds,90,2012-10-27 16:35:00
12:55 PM,69.8,60.8,73,29.85,10.0,ENE,6.9,-,N/A,,Scattered Clouds,70,2012-10-27 16:55:00
1:15 PM,69.8,60.8,73,29.85,10.0,ENE,4.6,-,N/A,,Mostly Cloudy,60,2012-10-27 17:15:00
1:35 PM,69.8,60.8,73,29.84,10.0,ENE,5.8,-,N/A,,Mostly Cloudy,60,2012-10-27 17:35:00
1:55 PM,69.8,60.8,73,29.83,10.0,ENE,5.8,-,N/A,,Mostly Cloudy,60,2012-10-27 17:55:00
2:15 PM,69.8,60.8,73,29.83,10.0,NE,3.5,-,N/A,,Mostly Cloudy,50,2012-10-27 18:15:00
2:35 PM,69.8,60.8,73,29.82,10.0,ENE,4.6,-,N/A,,Mostly Cloudy,60,2012-10-27 18:35:00
2:55 PM,69.8,60.8,73,29.82,10.0,NE,4.6,-,N/A,,Mostly Cloudy,40,2012-10-27 18:55:00
3:15 PM,68.0,60.8,78,29.81,10.0,NE,5.8,-,N/A,,Overcast,40,2012-10-27 19:15:00
3:35 PM,68.0,60.8,78,29.81,10.0,ENE,5.8,-,N/A,,Mostly Cloudy,60,2012-10-27 19:35:00
3:55 PM,68.0,60.8,78,29.81,10.0,ENE,3.5,-,N/A,,Scattered Clouds,70,2012-10-27 19:55:00
4:15 PM,66.2,60.8,83,29.80,-9999.0,NE,8.1,-,N/A,,Unknown,50,2012-10-27 20:15:00
4:35 PM,66.2,60.8,83,29.80,10.0,ENE,9.2,-,N/A,,Mostly Cloudy,60,2012-10-27 20:35:00
4:55 PM,66.2,60.8,83,29.80,10.0,ENE,5.8,-,N/A,,Scattered Clouds,60,2012-10-27 20:55:00
5:15 PM,66.2,60.8,83,29.80,10.0,NE,6.9,-,N/A,,Mostly Cloudy,40,2012-10-27 21:15:00
5:35 PM,66.2,59.0,78,29.79,10.0,NE,8.1,-,N/A,,Overcast,50,2012-10-27 21:35:00
5:55 PM,66.2,59.0,78,29.78,10.0,ENE,8.1,16.1,N/A,,Overcast,60,2012-10-27 21:55:00
6:15 PM,66.2,59.0,78,29.78,10.0,NE,9.2,-,N/A,,Overcast,50,2012-10-27 22:15:00
6:35 PM,66.2,59.0,78,29.77,10.0,NE,8.1,-,N/A,,Overcast,40,2012-10-27 22:35:00
6:55 PM,64.4,59.0,83,29.78,10.0,ENE,9.2,17.3,N/A,,Overcast,60,2012-10-27 22:55:00
7:15 PM,64.4,57.2,77,29.78,10.0,NE,6.9,18.4,N/A,,Overcast,40,2012-10-27 23:15:00
7:35 PM,64.4,59.0,83,29.78,10.0,NE,9.2,-,N/A,,Overcast,50,2012-10-27 23:35:00
7:55 PM,62.6,57.2,82,29.78,10.0,NE,5.8,-,N/A,,Overcast,40,2012-10-27 23:55:00
8:15 PM,62.6,57.2,82,29.79,10.0,NE,9.2,-,N/A,,Mostly Cloudy,40,2012-10-28 00:15:00
8:35 PM,62.6,57.2,82,29.78,10.0,NE,10.4,20.7,N/A,,Overcast,40,2012-10-28 00:35:00
8:55 PM,62.6,57.2,82,29.77,10.0,NE,9.2,18.4,N/A,,Overcast,40,2012-10-28 00:55:00
9:15 PM,62.6,57.2,82,29.78,10.0,ENE,8.1,18.4,N/A,,Mostly Cloudy,60,2012-10-28 01:15:00
9:35 PM,62.6,57.2,82,29.77,7.0,NE,9.2,-,N/A,,Overcast,50,2012-10-28 01:35:00
9:55 PM,60.8,57.2,88,29.76,7.0,NE,8.1,17.3,N/A,,Overcast,50,2012-10-28 01:55:00
10:15 PM,60.8,57.2,88,29.76,10.0,NE,9.2,-,0.01,,Overcast,40,2012-10-28 02:15:00
10:55 PM,60.8,57.2,88,29.77,10.0,NE,4.6,-,0.01,,Overcast,40,2012-10-28 02:55:00
11:15 PM,60.8,59.0,94,29.76,10.0,ENE,4.6,-,0.01,,Overcast,60,2012-10-28 03:15:00
11:35 PM,60.8,57.2,88,29.75,10.0,NNE,6.9,-,0.01,,Overcast,30,2012-10-28 03:35:00